TIMESTAMP,CO2_1_1_1,H2O_1_1_1,TAU_1_1_1,TAU_SSITC_TEST_1_1_1,H_1_1_1,H_SSITC_TEST_1_1_1,LE_1_1_1,LE_SSITC_TEST_1_1_1,FC_1_1_1,FC_SSITC_TEST_1_1_1,WD_0_0_1,WS_0_0_1,WS_MAX_0_0_1,U_SIGMA_0_0_1,V_SIGMA_0_0_1,W_SIGMA_0_0_1,USTAR_0_0_1,MO_LENGTH_0_0_1,ZL_0_0_1,FETCH_MAX_0_0_1,FETCH_70_0_0_1,FETCH_80_0_0_1,FETCH_90_0_0_1,PA_0_0_1,RH_0_0_1,TA_0_0_1,VPD_0_0_1,T_SONIC_0_0_1,T_SONIC_SIGMA_0_0_1
[yyyymmddHHMMSS],[mmolCO2 mol-1],[mmolH2O mol-1],[kg m-1 s-2],[#],[W m-2],[#],[W m-2],[#],[umolCO2 m-2 s-1],[#],[Decimal degrees],[m s-1],[m s-1],[m s-1],[m s-1],[m s-1],[m s-1],[m],[#],[m],[m],[m],[m],[kPa],[%],[deg C],[hPa],[deg C],[deg C]
20240626003000,428.02611159339460,13.166497983595587,0.30082559866568953,0,-22.034582144613495,0,-9999.,-9999.,1.9437687753816921,1,284.38364197088583,3.5893726327041686,9.2079114698990701,1.2004227893908266,1.0104384567660671,0.73467059967020620,0.52385003213196646,545.18581765402075,3.4850503048224103E-002,95.531445985544380,174.66195145356645,209.02574660506889,261.67543085213038,94.072312114800340,40.838666666666668,24.325333333333333,17.947955054285082,24.894081169128469,0.15971556603872647
20240626010000,412.57096518410322,12.195377524112521,0.53542318324702509,0,-49.265389426503774,1,239.60137058945054,1,1.9414675653010143,1,281.52954788477388,3.8350688242623443,10.515613683137172,1.5542928488533871,1.2596818115106443,0.87325185324953103,0.69810698826954831,577.07578901348268,3.2924618155408508E-002,104.68413657622983,191.39598895428341,229.05211556061377,286.74606836908237,94.089443707031265,38.957666666666668,23.837333333333333,17.984187338911710,24.379255763583728,0.23902567664230123
20240626013000,414.20719180922072,11.819780951640812,0.19466778458867320,0,-43.106904269716814,0,-53.376750509118757,1,-0.22763673677781315,1,280.83414525969283,3.1917059386837527,7.6044771723403706,1.0519334464319119,0.83616799403765285,0.60726537778997669,0.42033936121039034,143.96089857722805,0.13198028206115581,93.289363663728594,170.56270989380667,204.12000141893944,255.53402001599727,94.095061909623823,39.595999999999997,23.050000000000011,16.970987869879458,23.607293957223192,0.33433438866253540
20240626020000,415.52224409837640,11.276082681752943,0.20791771321133265,0,-53.601994965821561,0,25.949735024604788,1,-2.4190068977320196E-002,2,280.80619262099214,2.8928194170763977,6.6283405876927990,0.92838968448509940,0.71615270324763669,0.53620471209624831,0.43365198543251787,127.12426045672480,0.14946006318336000,105.65826383848864,193.17700427164800,231.18353601784005,289.41435385797729,94.108365578776045,39.970666666666666,22.121333333333325,15.941349750005644,22.701260282728356,0.33674812699938828
20240626023000,419.56486805384770,10.633828283675262,0.13380096443528985,0,-32.464536704036348,0,44.971057557612845,1,-0.51207608831545581,2,277.68714501328441,2.9441978572468521,6.5446898668729441,0.77712718794966629,0.73568991516118165,0.50171337260294013,0.34727123142043215,107.79797031124519,0.17625563770023944,93.287918732110825,170.56006809797211,204.11683986404950,255.53006212443881,94.133836519097230,39.776333333333334,21.245999999999981,15.159829909236910,21.800374371846601,0.36936338095036914
20240626030000,423.84937416613025,10.268847003535720,0.15256988645211236,0,-54.559975894977718,0,18.356614338320384,2,-0.11239485898963084,2,271.17980920057721,2.9857926005745465,5.7851270224257849,0.79631841349150378,0.67675970688308218,0.49461205981196926,0.37022593854897851,77.735263603496477,0.24441931652683549,99.315403865333366,181.58023328928840,217.30516300859230,272.04027771805062,94.168250376147753,40.384999999999998,20.437333333333356,14.278353340736594,20.984807573316289,0.35291460165309874
20240626033000,426.48161903226622,10.176816470204303,0.10578333978275217,0,-43.424118836233902,0,-9.3300178373923703,2,0.27363704188276317,0,278.30552168831946,2.9115495325230802,5.9195720328893966,0.70773924262806187,0.58154812593266714,0.41683962266039004,0.30795007223390530,56.217138274816605,0.33797522575978156,98.279729567583132,179.68669036162527,215.03907574179138,269.20340536371322,94.192375833767372,41.384999999999998,19.900333333333322,13.580319352899082,20.490786294725240,0.27213956470486361
20240626040000,428.17813679720183,10.150678087124357,5.8034420804764585E-002,0,-24.310353182364580,0,30.554743726892049,1,-0.58479831876346400,2,276.35852953827214,2.8745785427572139,4.9567733022853808,0.55312580306989945,0.45055570569442682,0.30862665693247981,0.22788262481105823,40.694285826124130,0.46689601781394940,98.237459484809762,179.60940716896414,214.94658749857879,269.08762105826526,94.204348636718748,42.595333333333336,19.396666666666647,12.890437680784467,20.003781793382473,0.29091958483471070
20240626043000,430.32265065929721,10.139056122484817,7.0393783484078126E-002,0,-30.378912706525451,0,16.143734343088564,1,-0.54351742242171486,1,275.37280082258951,3.0473629580710053,4.9092685871759416,0.56573568474595992,0.53551233243192253,0.32096875419992787,0.25076565842588261,43.400598686332003,0.43778197939890640,102.77775884772475,187.91052245858421,224.88090236582607,281.52420442337217,94.228014959524501,43.685666666666670,18.976666666666688,12.318959515937607,19.608111371155246,0.31261776737385089
20240626050000,432.14814468248267,10.334726112805800,0.11765119601882368,0,-41.743233831409533,0,1.0248017282624018,1,-2.7018347357719907E-002,1,264.12216587809434,3.3242018136270888,6.0156153110835033,0.69595949309963290,0.60311906759203349,0.43485148740258855,0.32392891807993590,68.093889032791850,0.27902650692854691,98.933166211976612,180.88138095050536,216.46881524844684,270.99326956698411,94.249751864800345,45.735333333333337,18.552666666666653,11.560083132715112,19.211041495429185,0.30700520274847565
20240626053000,433.89983594963104,10.507850993200790,0.13485356322864531,0,-49.170144863919809,0,-2.8190240195039773,2,-0.19987904798907252,0,263.11776455037409,3.2516185199877405,5.7048634970392360,0.71835002989395436,0.60917220274841077,0.44298025743138086,0.34655020542382059,70.795928015053263,0.26837701733297498,102.88695906079924,188.11017527570604,225.11983579587991,281.82332072492733,94.267269430772572,47.661666666666669,18.162666666666667,10.880327705557324,18.848530271742106,0.29640310931302505
20240626060000,436.36891863491451,10.927779789461283,0.10944606353409268,0,-32.561901736210423,0,-11.550832310124759,2,0.96580486716599256,1,259.52071284561555,2.9417369073964910,6.9126480598903370,0.80866602276644439,0.60553029262782276,0.40606309120816764,0.31197026453086629,78.002062243627606,0.24358330348569995,101.40763342957413,185.40549621511531,221.88302574502362,277.77121863510860,94.279085210937495,50.968333333333334,17.721333333333348,9.9137964439269997,18.500470670064317,0.24935430222826002
20240626063000,439.17023941280900,11.276869303996971,4.7036572034957105E-002,0,-24.540599427118892,0,-9999.,-9999.,1.3314285556547620,1,246.76875087581865,2.5438777402435684,4.5833877075406280,0.55992093991953384,0.55477613804845904,0.24121754781059732,0.20434114556274136,29.089224327307601,0.65316282710789542,109.65096050210211,200.47692717802167,239.91967931044405,300.35096859184216,94.295176786855848,54.262000000000000,17.230333333333306,8.9655281516177006,18.037514479266861,0.37538922176064293
20240626070000,439.72667723194041,11.456909515492161,7.0653194427247698E-002,0,-31.688956824929328,0,-9999.,-9999.,-2.6222301776539076,1,305.70862081606583,2.4103002518171963,7.7244076716137284,0.89028374960272683,0.87618954742177624,0.37846591956117459,0.25029065759659702,41.400123424806978,0.45893582985347309,89.947519038486178,164.45275209218630,196.80794243539665,246.38018984908541,94.300046371310756,56.372000000000000,16.879000000000019,8.3636861981447215,17.734911272684712,0.51794590616732750
20240626073000,440.77748202896203,11.632694770735867,3.8844204467382064E-002,1,2.6108012532416343,2,-9999.,-9999.,-1.9059829393369141,2,278.55089890038812,1.9645580118549164,3.4586838486299993,0.65835253942745575,0.66334988378340098,0.14262372865119327,0.18541040481281759,-204.25274748105477,-9.3022004522912594E-002,170.27243288759067,672.00000000000000,980.00000000000000,1772.0000000000000,94.286826968315964,59.469666666666669,16.274999999999977,7.4770882075140230,17.155102918836803,0.25241197127472470
20240626080000,442.91255938633975,11.870813441459669,6.6684257529712647E-003,1,0.22034703164455341,2,-9999.,-9999.,0.48321039588973103,1,240.75116782512629,2.1406286141048008,3.6951227635608186,0.50931860989823063,0.53208326225336355,0.14004609389166681,7.6801888987523798E-002,-171.97277646011736,-0.11048260306715661,571.06943659462479,2108.0000000000000,3024.0000000000000,5313.0000000000000,94.255445930121525,61.720999999999997,16.004999999999995,6.9411437936424907,16.927985541449686,0.40221761255530653
20240626083000,450.55371076821928,12.949540068478198,2.6311115710830685E-002,0,-9.6147957619095177,0,-9999.,-9999.,-0.94900984254904397,2,239.77246984583275,2.6025232683195574,4.0122976057240791,0.35360643629029853,0.34187220352203923,0.17600077738099990,0.15248664995636929,30.846463919776937,0.61595390802050143,352.00500153756036,3690.0000000000000,7018.0000000000000,-9999.,94.232045943317587,69.295666666666662,15.551333333333332,5.4083281991516428,16.502095183944675,0.29943085418652299
20240626090000,452.97227670626143,12.730057771968896,5.0445799046248518E-002,0,-20.332624123010259,0,-9999.,-9999.,-0.77125234203661930,1,229.15587169840347,2.4848877750483904,3.9869264464468372,0.44490574166617791,0.48845017745833758,0.22556799748982048,0.21099307466249090,38.631591858951879,0.49182544869937161,118.69911289974098,217.01983552110286,259.71731547936685,325.13525980236312,94.202246343574629,70.206000000000003,15.076999999999998,5.0905264300927913,15.997824747321147,0.35975183657192172
20240626093000,454.08490617528588,12.772009853440840,3.8152323842804904E-002,0,-15.047131805731050,0,-9999.,-9999.,0.20288025798654130,1,221.24350131621307,2.3113909390980591,3.8123110191487388,0.45175321740748642,0.34975121116080110,0.22487315870859234,0.18344632806698891,34.307442351987625,0.55381569413026277,212.94184369569820,2088.0000000000000,3896.0000000000000,-9999.,94.196734596595817,71.179333333333332,14.913333333333355,4.8726102955240735,15.879560818647292,0.38741513984629566
20240626100000,453.53386680468651,12.827142149393731,5.8666251978364344E-002,0,-20.594892104514763,0,-9999.,-9999.,-0.11168524338100166,1,224.97470791899462,2.7572685935744774,4.4529081194417142,0.62583735784406591,0.36104351219783870,0.23407985305681306,0.22743574051788540,47.778499279448532,0.39766841333529851,122.36314799982338,223.71886026811228,267.73433714674320,335.17161959551936,94.226205533687775,71.634999999999991,14.886000000000024,4.7871343062145710,15.882296926899244,0.35337784979235304
20240626103000,457.64524043846347,13.361204648096258,8.0481873517564737E-002,0,-8.5281970180239046,2,-9999.,-9999.,-4.3744427066249196,1,212.35738539004313,2.8794460523156085,5.1618813989424721,0.58706967145170907,0.55308188388678459,0.33487513752057435,0.26624705086983219,185.16223571856946,0.10261271649840280,104.22608397612858,190.55852271291437,228.04988236155754,285.49139133318181,94.257111066840267,75.940333333333328,14.618666666666684,3.9911065936261911,15.573670230441564,0.38195857895221147
20240626110000,469.97404034252804,13.714168316284240,6.7328746355621708E-002,0,-10.249408768781318,1,-9999.,-9999.,1.9717645815861691,1,216.72113352439570,2.8693782807702095,4.8089447487391190,0.50935314282568545,0.60352971169143077,0.32700352478399641,0.24333207049864516,117.65049243166614,0.16149528665199253,98.849034983379298,180.72756223235032,216.28473352866408,270.76282109774758,94.292339713534432,79.900000000000006,14.241666666666674,3.2539557662138692,15.291886306305798,0.34822495084177946
20240626113000,460.90561586335986,14.011516612223629,0.12525337480443405,0,-21.442486911021440,0,-9999.,-9999.,0.47785065108837016,2,241.93977738668951,2.2961221919464445,5.2810174184618344,1.0347458695106468,0.77365847785350594,0.37840122037878748,0.33235808217769958,143.31154957340746,0.13257828874614019,112.86983041645354,206.36204798736091,246.96266583839540,309.16795197365263,94.296661396701381,77.564999999999998,15.033999999999992,3.8225943982102946,16.046708584255612,0.16769324785591008
20240626120000,463.26391902737726,14.173446084475268,0.11636921183858255,1,4.9060159265683989,2,-9999.,-9999.,-2.0915766519168559,1,312.34322918885789,1.4676446813598083,8.1181090072543061,1.3198349949868382,0.66806314426333635,0.34821825920932520,0.32000031048541783,-559.23329189017704,-3.3975087455507286E-002,117.02913296978605,213.96657959636411,256.06334794989880,320.56092605102964,94.334786511067705,81.264666666666670,14.495999999999981,3.0833545913277338,15.403353760613300,0.65768951434194378
20240626123000,471.23427900464253,13.663510828491191,1.9065788089819229E-002,1,-10.120732773536531,1,-9999.,-9999.,-7.6744718229553407E-002,2,289.25423564064516,0.74299145841517089,5.7442443040013398,0.80251120532167053,0.72331479655191244,0.23644194092075330,0.12919971091168198,17.843841497935156,1.0647931389773122,45.395825204834729,345.00000000000000,599.00000000000000,1468.0000000000000,94.363322650607628,85.313333333333333,13.188333333333333,2.2201807680392132,14.035254793802892,0.18699383351779650
20240626130000,468.44559255748584,13.960051070596926,0.19957433857777665,1,-34.825718132551152,1,-9999.,-9999.,5.5071319639282557,1,306.57346817202921,1.5446441554863761,5.9380186024564905,1.1500885701930827,0.79019044614779566,0.38222746936927882,0.41806882602206208,175.73308149423738,0.10811851609523529,134.52271121678487,245.95041992249949,294.33983603348162,368.47854707836711,94.385005556640621,86.536666666666662,13.302666666666653,2.0504960078134262,14.269189738803391,0.28683211558725336
20240626133000,467.48905306828021,13.988425039690471,6.6431454514424948E-002,0,19.632243559442657,1,-9999.,-9999.,1.0192366427252546,0,267.70406994899565,1.2545627547190652,3.9387922576366239,0.70718325089567213,0.72668273579563358,0.32269235460704754,0.24120814861218368,-59.870369429474209,-0.31735230934864234,99.205908639908415,181.38004109550056,217.06558408242799,271.74035333196252,94.383033396288823,86.689999999999998,13.306333333333328,2.0276280138306606,14.352190441645007,0.43785120882253642
20240626140000,460.04108095478114,14.121097576324903,0.35146159030448032,1,180.01422782222014,0,-9999.,-9999.,11.624691358545350,2,322.18531940318928,2.3115540231658609,8.5048662584717949,1.1457599399555520,1.0612596636409084,0.65038222329331241,0.55600371994913012,-79.968071580034874,-0.23759482534206328,110.45417285646367,201.94545553323607,241.67713268426030,302.55109166885620,94.372375478949664,81.009000000000000,14.493666666666684,3.1249594257485276,15.405739602830636,0.45921727951943109
20240626143000,453.72043011134025,14.728764897298309,0.35454073415575249,1,182.79660943741013,1,-4.3194585989002388,2,12.262504431682601,1,339.15382915530665,2.1338258389778226,7.4767913511093695,1.2496981190274379,0.75873306990272327,0.55135889316150977,0.55873943214755051,-79.930401946436433,-0.23770679913172993,126.55370097788712,231.38052762033595,276.90339615020906,346.65019342773616,94.376557868706598,83.086666666666673,14.754666666666651,2.8303804446789083,15.745968056572792,0.51928908100072191
20240626150000,445.02790121448140,14.644318496134144,0.68326603188416624,0,191.39494114316423,0,-25.968598341494694,2,-3.8019690221101463,2,324.22632022102187,2.9726121879486658,9.7448190341152152,1.4925621250923757,1.4204737608026814,0.83141091086146501,0.77570780972519060,-204.30220799790285,-9.2999484372655594E-002,118.45703425625460,216.57723855378632,259.18763995033174,324.47216889359595,94.395554063585067,82.079999999999998,14.857666666666660,3.0188243367273140,15.779059285481821,0.45445640327972731
20240626153000,441.00301446051424,14.490741355423067,0.70860812634774384,0,103.72525014530613,0,-9999.,-9999.,-1.0393001731376108,1,319.25108204191946,3.3508306061898221,9.3134523744012849,1.5511325784594687,1.3095063503335975,0.82644215976606128,0.78850543619410618,-396.09381908392186,-4.7968433448274533E-002,120.59482790187269,220.48580715228940,263.86519830039072,330.32791688860385,94.449773134982649,86.023333333333326,13.978000000000009,2.2243101507610166,14.930343854268358,0.41384970643214103
20240626160000,437.31614178357984,14.226013355639529,0.83313036433407472,0,84.273125502627906,0,-9999.,-9999.,-2.5821803276007032,2,318.90719627049913,4.0007755920693482,10.699640103060815,1.9200344655126620,1.4588130142441611,0.90136533500691318,0.85332665345600311,-618.08682093704817,-3.0740017998110884E-002,119.84680677808660,219.11818596890714,262.22850503920625,328.27897114268859,94.495932296007666,89.849999999999994,13.034333333333336,1.5190104664281125,13.981043296102143,0.37934349282992641
20240626163000,433.20096908807631,13.951314745039925,0.55507982500386721,0,95.245199183342436,0,-9999.,-9999.,0.89953143328974405,0,315.90800514621151,3.0801461846260536,8.0808392191090448,1.4540826571206389,1.1310300218534981,0.77191152860254442,0.69533498482860379,-296.00403533032920,-6.4188314118071826E-002,115.17444886201798,210.57562552620692,252.00524198967457,315.48065894120020,94.554592067708342,92.736666666666665,12.264333333333354,1.0334720487363849,13.159150537278833,0.30338205649406785
20240626170000,432.08583709093347,13.792172396165030,0.62209427102717707,0,107.41634052019721,0,-9999.,-9999.,-3.2753967911199209,1,314.10909559137372,3.0182908143038585,8.3850115175820541,1.4501961733991593,1.2405827049092775,0.76423885473198150,0.73555752315084277,-310.72866824604677,-6.1146594896596664E-002,121.44088460185490,222.03266863580151,265.71639642221925,332.64539726597280,94.572279871093755,93.896666666666661,11.904333333333341,0.84806654169606188,12.772606806437182,0.22453976526959568
20240626173000,430.79130096427946,13.549211652641183,0.44857118420330139,0,68.903048784476056,0,-9999.,-9999.,0.99146960061840128,1,319.67670916939375,3.4961681600662646,8.0505319752888891,1.4029580910577806,1.1968656959602189,0.72944018204806782,0.62405566729564033,-295.94348374898192,-6.4201447382148558E-002,110.52023977365825,202.06624692883025,241.82168913423365,302.73205919053044,94.632084037977435,94.106666666666669,11.610999999999990,0.80317378691388519,12.444249274359890,0.20893754451168636
20240626180000,429.64048332078397,13.636269092501248,0.67833628862067441,0,92.228092584700818,0,-9999.,-9999.,-4.2911868955719079,1,320.17245858798174,3.3231482882212950,10.364524971044220,1.7196252163514965,1.1703887226151337,0.81323719634691183,0.76745253098862887,-411.34396029547406,-4.6190054635424908E-002,119.54249900437415,218.56181430457423,261.56267025630558,327.44542500532651,94.671435661892360,93.896666666666661,11.747999999999990,0.83935932510722067,12.539207882351320,0.22860180990173959
20240626183000,429.69813337103193,13.229097019890856,0.58817823111978118,0,101.18470914345339,0,-9999.,-9999.,-0.29877870685454838,2,306.23410810464793,4.0527209408121649,9.7984892045934799,1.7184019937338768,1.3937253835582806,0.93147902280350692,0.71470985612041116,-302.86816249470485,-6.2733566458416323E-002,101.30252109110293,185.21331733652903,221.65303671052632,277.48329965540961,94.700383679349798,89.973333333333329,11.939999999999998,1.3965007909471661,12.742546840158639,0.27268632624075706
20240626190000,427.69756589898282,13.045109145814472,0.44547616355120273,0,173.06682011996816,0,-9999.,-9999.,-2.7573724377836970,1,319.54213166573379,3.3416887206043504,9.9897662904626934,1.5975384677623001,1.4885450049434543,0.81433497949251155,0.62237381787763457,-116.94089564801281,-0.16247523926265456,100.98421159321991,184.63134605479141,220.95656572382575,276.61140062631432,94.718027192925348,86.319999999999993,12.359666666666669,1.9587161581409169,13.116483826531294,0.43464685340646464
20240626193000,426.88930812216705,12.693445600168848,0.77711928374918815,0,157.25266930176534,0,-9999.,-9999.,-2.3057388383842512,1,330.77254186060003,3.5655085539895044,9.2942854606866625,1.7260987534532093,1.1111433889054867,0.82841832728500109,0.82190805685351753,-296.39846355404183,-6.4102896392159478E-002,124.42674246849694,227.49176910654697,272.24954541198656,340.82412454949997,94.719460573350688,84.193333333333328,12.323666666666668,2.2578641720049699,13.056713469611282,0.34990525964184921
20240626200000,426.09109280918801,12.377405086378182,0.77999663001285457,0,141.26193499750349,0,-9999.,-9999.,0.65018089219156416,2,313.93952490951767,4.0214847468441235,10.667274043968009,1.7341083645033182,1.5429635446821617,0.97464956853817730,0.82352026435660219,-331.92073191732459,-5.7242582860815558E-002,109.42474322293295,200.06332984339971,239.42470893513476,299.73132441727637,94.736233371850346,81.313333333333333,12.472333333333324,2.6954561527433474,13.174404464163899,0.26406373546478890
20240626203000,426.00622807983484,12.087823215837490,0.70217616657626103,0,145.61445198191572,0,-9999.,-9999.,0.20846681579824264,2,311.00209007390094,3.6573013222152602,12.092443498882373,1.7299582540294731,1.6089860485956504,0.88078882502328437,0.78165237102660601,-275.37602748730023,-6.8996565072739463E-002,113.80684472267821,208.07520898452486,249.01288200457674,311.73457932621096,94.758269406032980,77.820333333333338,12.784333333333336,3.2654544326167319,13.455655114915658,0.35760251602653320
20240626210000,425.55769642013780,11.809651987841843,0.74495220138132734,0,155.84222843022604,0,-9999.,-9999.,-1.5441240348333491,1,314.65587407524009,3.9028645851651236,10.264532521106656,1.7949979884085980,1.5385983917213082,0.95660955414919013,0.80530666158292652,-281.39656737822116,-6.7520368770036795E-002,109.10286668558722,199.47483687587541,238.72043315620931,298.84965471446583,94.773347664279513,74.974000000000004,13.000333333333344,3.7369781527092663,13.644786855061852,0.31145301265991349
20240626213000,426.25189033858476,11.491152535952155,0.86912572811356070,0,146.54414791809720,0,-9999.,-9999.,-4.8063920018236752,0,316.85908004390586,3.5697560961287937,9.1199554785063448,1.7933367141931731,1.3492289851118844,0.89114967251980204,0.86981085053398832,-377.09353643451237,-5.0385377006586851E-002,122.81014245955799,224.53610870207814,268.71237479403783,336.39600667176302,94.787456016276053,72.680333333333337,13.059666666666658,4.0953348964385441,13.713941883511040,0.26925367805823935
20240626220000,426.20197016067834,11.511873982470524,0.53045591186176377,0,83.444882599990493,0,-9999.,-9999.,-2.1361899408316609,1,333.65666035784932,3.2419826093521458,8.3443443058152589,1.3792713077839438,1.1930372815929131,0.74995257480966915,0.67963596461763465,-315.94659648956491,-6.0136745295268697E-002,115.73079632569603,211.59280612773318,253.22254737815092,317.00458083686033,94.799274882161455,72.236000000000004,13.182999999999993,4.1956173045749914,13.846089787801134,0.23077198839763988
20240626223000,426.86944854870239,11.462156449483921,0.58969478921277341,0,166.10825909282394,0,-9999.,-9999.,-5.1686673038563624,1,333.64834716688415,2.8278644692458523,9.1623294386401231,1.5213736355769838,1.1522402044494440,0.72847321787819641,0.71685712586293227,-186.22820728884287,-0.10202536058638369,123.61469834657014,226.00709346347554,270.47276785868024,338.59980989285498,94.786028418185765,71.046333333333337,13.368999999999971,4.4288302910187962,13.986701593187036,0.43937099685103087
20240626230000,425.04444885188747,11.477348455131409,0.42291443843768239,0,146.28501405525097,0,-9999.,-9999.,-0.96449863091923738,1,342.03085199916643,2.5598021594143465,6.7102792648775722,1.1196505605626215,0.91341222191076610,0.68770819339909717,0.60755222625958560,-128.71952930053160,-0.14760774921448949,113.39618250116827,207.32438746960676,248.11434041371041,310.60971187927032,94.770768563533281,69.305000000000007,13.768000000000029,4.8187624659921582,14.372880413016219,0.35133000949950377